Volver al catálogo

SL-14 DEB

ActivoPO
NORAD 45307·DEBRIS·🇷🇺 Russia

Lanzado Aug 15, 1991 desde Plesetsk Cosmodrome

Loading…

Próximos Pases (próximas 24 horas)

TLE

ActualizadoSource: Space-Track

Época: Sep 14, 2026, 03:00 UTC

1 45307U 91056AV  26257.12543425 -.00000590  00000-0 -15637-2 0  9998
2 45307  82.6099 142.8986 0239427 296.0321  61.6320 13.07257977310104

Sigue SL-14 DEB en tiempo real con AllMySat

Download on the App Store